User: anonymous   Login
Location: NJAA Observatory
(40.6819°N, 74.8979°W)
Time: 17:22:32
(UTC-04:00)
Language:

Cosmos 2082 - Orbit

View from above orbital plane
View from above orbital plane
View from above satellite
View from above satellite

Ground track
Ground track

The orbit data is extracted from the following two-line orbital elements,

1 20624U 90046A   17118.89711895 -.00000276 +00000-0 -11985-3 0  9993
2 20624 071.0386 317.7356 0012881 105.4675 254.7871 14.14220155390002
Epoch (UTC): 28 April 2017 21:31:51
Eccentricity: 0.0012881
inclination: 71.0386°
perigee height: 835 km
apogee height: 854 km
right ascension of ascending node: 317.7356°
argument of perigee: 105.4675°
revolutions per day: 14.14220155
mean anomaly at epoch: 254.7871°
orbit number at epoch: 39000

The dashed part of the orbit path shows where the satellite is in the earth's shadow,  

DLR